Location: Astronomy Club of Akron Observatory
(40.9700°N, 81.5606°W)
Time: 14:30:54
(UTC-05:00)

Daily predictions for brighter satellites

Satellite Brightness Start Highest point End
(mag) Time Altitude Azimuth Time Altitude Azimuth Time Altitude Azimuth
Cosmos 2369 Rocket 2.8 17:42:16 10° N 17:47:23 34° ENE 17:52:30 10° ESE
In-Cosmos 22 4.1 17:45:34 10° S 17:50:51 89° ESE 17:56:12 10° N
CORIOLIS 4.1 17:54:34 10° SSE 17:59:54 78° ENE 18:05:15 10° N
Tiangong 1 0.5 17:57:26 10° WSW 17:59:55 72° SSE 18:02:19 10° ENE
Cosmos 2154 Rocket 4.0 17:54:00 10° N 18:00:17 69° E 18:06:36 10° SSE
Cosmos 1300 4.2 17:58:39 10° NNE 18:01:08 16° ENE 18:03:34 10° ESE
NOSS 3-3 (A) 4.2 17:56:22 10° SSW 18:02:10 52° ESE 18:08:28 10° NE
NOSS 3-3 (C) 4.2 17:56:30 10° SSW 18:02:16 52° ESE 18:08:34 10° NE
CSL-04 Rocket 4.0 17:57:45 10° S 18:03:19 77° WSW 18:08:52 10° NNW
USA 116 4.0 17:59:33 10° NNE 18:03:35 61° ESE 18:08:07 10° S
Cosmos 2181 Rocket 4.4 18:00:52 10° SSE 18:06:54 45° E 18:12:58 10° NNE
NOSS 7 (D) 4.5 18:04:28 10° SW 18:08:00 77° NW 18:11:14 10° NNE
ALOS 2.8 18:04:20 10° SE 18:08:34 36° ENE 18:12:50 10° N
Cosmos 1354 Rocket 4.1 18:04:25 10° NNW 18:09:41 61° ENE 18:14:56 10° SSE
Cosmos 2084 3.3 18:06:27 10° NNW 18:10:10 50° NE 18:13:56 10° SE
SPOT 3 Rocket 4.1 18:06:39 10° SE 18:11:13 33° ENE 18:15:49 10° N
Cosmos 1943 Rocket 2.7 18:09:08 10° N 18:14:18 36° ENE 18:19:23 10° SE
MOS 1 4.4 18:12:47 10° SE 18:18:14 51° ENE 18:23:41 10° N
MTI 4.2 18:15:20 10° NNE 18:18:23 39° E 18:21:24 10° S
GEOS 3 Rocket 4.4 18:14:21 10° ESE 18:19:04 33° NE 18:23:51 10° NNW
SKYMED 2 3.7 18:15:10 10° NNE 18:19:26 54° E 18:23:41 10° S
Ariane Rocket 3.6 18:15:39 10° S 18:20:38 61° WSW 18:25:41 10° NNW
Cosmos 1908 3.3 18:17:55 10° N 18:21:49 83° W 18:25:41 10° S
ERS-2 3.0 18:21:34 10° SE 18:24:44 28° ENE 18:27:55 10° N
Cosmos 1400 Rocket 3.1 18:22:04 10° SSE 18:25:54 45° E 18:29:49 10° NNE
Cosmos 1809 Rocket 4.4 18:20:15 10° N 18:26:22 89° ENE 18:32:27 10° S
YAOGAN 1 2.6 18:25:19 10° SSE 18:29:38 84° WSW 18:33:59 10° NNW
Cosmos 2218 Rocket 4.2 18:26:58 10° N 18:32:52 45° ENE 18:38:42 10° SSE
KORONAS-FOTON 3.9 18:31:00 10° SSW 18:34:48 76° W 18:38:37 10° N
H-2A R/B 3.6 18:31:46 10° SE 18:34:58 26° ENE 18:38:11 10° NNE
SL-16 R/B 4.4 18:30:49 10° W 18:35:06 21° NW 18:39:25 10° N
BREEZE-M R/B 3.9 18:31:14 10° WSW 18:35:24 84° NNW 18:47:13 15° ENE
SL-8 Rocket 4.0 18:29:57 10° N 18:36:03 57° E 18:42:08 10° SSE
Meteor 2-21 Rocket 4.4 18:30:11 10° N 18:36:20 81° E 18:42:24 10° S
Meteor 2-16 Rocket 4.4 18:30:28 10° N 18:36:33 67° E 18:42:37 10° SSE
NOAA 12 4.0 18:31:58 10° SSE 18:37:07 63° ENE 18:42:18 10° N
Cosmos 1503 Rocket 4.3 18:32:04 10° NNW 18:37:23 76° WSW 18:42:42 10° SSE
FENGYUN 3A 3.6 18:32:09 10° SSE 18:37:28 69° ENE 18:42:48 10° N
CZ-4 R/B 3.2 18:43:11 10° SSW 18:47:02 35° W 18:50:58 10° NNW
Lacrosse 5 rocket 4.3 18:43:41 10° WNW 18:47:04 21° WSW 18:50:31 10° S
Cosmos 2098 Rocket 4.4 18:44:27 10° NNE 18:48:32 26° ENE 18:53:25 10° SE
Cosmos 1943 3.3 18:44:57 10° SSW 18:50:35 76° WNW 18:56:14 10° NNE
Cosmos 1992 Rocket 4.4 18:50:18 10° SSW 18:55:26 64° WNW 19:00:38 10° NNE
EO 1 Del DPAF 3.2 18:55:24 10° N 18:59:14 81° WNW 19:03:03 10° SSW
Cosmos 44 4.2 18:56:49 10° SSE 18:59:40 24° SE 18:59:40 24° SE
Cosmos 1726 3.3 18:59:57 10° NNW 19:03:28 43° W 19:06:56 10° SSW
Cosmos 2221 3.4 19:01:24 10° NNW 19:05:37 50° W 19:09:51 10° SSW
COSMO-SKYMED 1 3.7 19:03:19 10° N 19:07:26 43° WNW 19:11:33 10° SW
Cosmos 1408 Rocket 3.5 19:03:34 10° S 19:07:46 55° E 19:08:58 40° NE
Cosmos 44 Rocket 4.4 19:08:31 10° S 19:11:25 26° SE 19:11:25 26° SE
Cosmos 2366 rocket 3.9 19:09:27 10° N 19:15:46 88° E 19:21:57 10° S
SL-14 R/B 4.0 19:12:35 10° SSW 19:16:31 55° W 19:20:14 11° N
Cosmos 968 Rocket 3.6 19:13:25 10° NNW 19:18:35 73° WSW 19:23:40 10° S
ATLAS 2AS CENTAUR R/B 3.5 19:16:19 10° NW 19:24:00 58° WSW 19:31:02 10° SSE
Cosmos 1315 Rocket 3.1 19:24:07 10° SSW 19:28:02 65° W 19:29:12 42° NNW
Nadezhda 3 Rocket 4.0 19:24:23 10° SSE 19:30:29 55° E 19:32:36 39° NE
Cosmos 2369 Rocket 3.8 19:26:18 10° NW 19:31:23 35° WSW 19:36:27 10° SSW
Tiangong 1 3.9 19:31:54 10° W 19:32:19 14° WNW 19:32:19 14° WNW
Thor Agena Rocket 3.4 19:34:00 57° NE 19:34:59 72° ESE 19:40:12 10° S
Meteor 1-27 4.1 19:34:16 10° N 19:39:58 76° E 19:45:43 10° SSE
OAO 3 Rocket 4.0 19:38:49 10° WSW 19:43:01 40° S 19:43:01 40° S
Meteor 1-11 4.1 19:38:08 10° S 19:43:43 87° W 19:46:15 34° N
Cosmos 1626 3.5 19:42:28 10° SSW 19:44:48 34° SW 19:44:48 34° SW
NOSS 3-4 (A) 3.7 19:39:28 10° NNW 19:46:30 67° NE 19:47:56 56° ESE
NOSS 3-4 (C) 3.7 19:39:35 10° NNW 19:46:36 67° NE 19:47:57 56° ESE
GEOS 3 Rocket 4.5 19:53:26 20° S 19:56:54 48° WSW 20:02:06 10° NW
Cosmos 1943 Rocket 3.9 19:53:02 10° NW 19:57:55 31° WSW 20:02:44 10° SSW
Cosmos 1656 Rocket 3.6 19:53:52 10° NNW 19:59:20 76° WSW 19:59:26 75° WSW
COSMOS 2406 4.4 20:00:51 10° SSW 20:03:47 31° S 20:03:47 31° S
